TimeCST,TemperatureF,Dew PointF,Humidity,Sea Level PressureIn,VisibilityMPH,Wind Direction,Wind SpeedMPH,Gust SpeedMPH,PrecipitationIn,Events,Conditions,WindDirDegrees,DateUTC
12:15 AM,66.2,62.6,88,30.18,10.0,NE,5.8,-,N/A,,Overcast,40,2013-11-23 06:15:00
12:35 AM,66.2,62.6,88,30.18,10.0,NNE,5.8,-,N/A,,Overcast,20,2013-11-23 06:35:00
12:55 AM,66.2,60.8,83,30.17,10.0,NNE,5.8,-,N/A,,Overcast,30,2013-11-23 06:55:00
1:15 AM,66.2,60.8,83,30.17,10.0,NNE,5.8,-,N/A,,Overcast,30,2013-11-23 07:15:00
1:35 AM,66.2,60.8,83,30.17,10.0,North,6.9,-,N/A,,Overcast,360,2013-11-23 07:35:00
1:55 AM,66.2,60.8,83,30.17,10.0,NE,5.8,-,N/A,,Overcast,40,2013-11-23 07:55:00
2:15 AM,64.4,60.8,88,30.18,10.0,NE,5.8,-,N/A,,Overcast,40,2013-11-23 08:15:00
2:35 AM,64.4,60.8,88,30.17,10.0,NNE,4.6,-,N/A,,Overcast,20,2013-11-23 08:35:00
2:55 AM,64.4,60.8,88,30.17,10.0,NE,5.8,-,N/A,,Overcast,40,2013-11-23 08:55:00
3:15 AM,64.4,60.8,88,30.17,10.0,NNE,4.6,-,N/A,,Overcast,20,2013-11-23 09:15:00
3:35 AM,64.4,60.8,88,30.17,10.0,NNE,5.8,-,N/A,,Overcast,20,2013-11-23 09:35:00
3:55 AM,64.4,60.8,88,30.17,10.0,NNE,3.5,-,N/A,,Overcast,30,2013-11-23 09:55:00
4:15 AM,64.4,60.8,88,30.17,10.0,NNE,6.9,-,N/A,,Overcast,30,2013-11-23 10:15:00
4:35 AM,64.4,59.0,83,30.18,10.0,NNE,9.2,-,N/A,,Overcast,20,2013-11-23 10:35:00
4:55 AM,64.4,59.0,83,30.18,10.0,North,6.9,-,N/A,,Overcast,10,2013-11-23 10:55:00
5:15 AM,64.4,59.0,83,30.18,10.0,North,5.8,-,N/A,,Overcast,10,2013-11-23 11:15:00
5:35 AM,64.4,59.0,83,30.18,10.0,Calm,Calm,-,N/A,,Overcast,0,2013-11-23 11:35:00
5:55 AM,64.4,59.0,83,30.18,10.0,North,5.8,-,N/A,,Overcast,10,2013-11-23 11:55:00
6:15 AM,64.4,59.0,83,30.19,10.0,NNE,3.5,-,N/A,,Overcast,30,2013-11-23 12:15:00
6:35 AM,64.4,59.0,83,30.19,10.0,Calm,Calm,-,N/A,,Overcast,0,2013-11-23 12:35:00
6:55 AM,64.4,59.0,83,30.20,10.0,North,6.9,-,N/A,,Overcast,10,2013-11-23 12:55:00
7:15 AM,64.4,59.0,83,30.20,10.0,NE,5.8,-,N/A,,Overcast,50,2013-11-23 13:15:00
7:35 AM,64.4,59.0,83,30.20,10.0,North,4.6,-,N/A,,Overcast,360,2013-11-23 13:35:00
7:55 AM,64.4,59.0,83,30.21,10.0,NE,5.8,-,N/A,,Overcast,50,2013-11-23 13:55:00
8:15 AM,64.4,59.0,83,30.21,10.0,NE,4.6,-,N/A,,Overcast,50,2013-11-23 14:15:00
8:35 AM,64.4,59.0,83,30.21,9.0,North,6.9,-,N/A,,Overcast,10,2013-11-23 14:35:00
8:55 AM,64.4,59.0,83,30.22,10.0,NNE,4.6,-,N/A,,Overcast,30,2013-11-23 14:55:00
9:15 AM,64.4,59.0,83,30.22,9.0,North,5.8,-,N/A,,Overcast,10,2013-11-23 15:15:00
9:35 AM,62.6,59.0,88,30.22,9.0,NNE,8.1,-,N/A,,Overcast,20,2013-11-23 15:35:00
9:55 AM,62.6,57.2,82,30.23,9.0,North,6.9,-,N/A,,Overcast,10,2013-11-23 15:55:00
10:15 AM,62.6,59.0,88,30.22,10.0,NNE,4.6,-,N/A,,Overcast,20,2013-11-23 16:15:00
10:35 AM,64.4,59.0,83,30.23,10.0,NNE,6.9,-,N/A,,Overcast,20,2013-11-23 16:35:00
10:55 AM,64.4,59.0,83,30.22,10.0,North,5.8,-,N/A,,Overcast,360,2013-11-23 16:55:00
11:15 AM,64.4,59.0,83,30.22,10.0,North,5.8,-,N/A,,Overcast,10,2013-11-23 17:15:00
11:35 AM,64.4,59.0,83,30.21,10.0,NNE,4.6,-,N/A,,Overcast,20,2013-11-23 17:35:00
11:55 AM,64.4,59.0,83,30.21,3.0,North,8.1,-,N/A,,Overcast,360,2013-11-23 17:55:00
12:15 PM,62.6,57.2,82,30.20,3.0,North,8.1,-,N/A,,Overcast,360,2013-11-23 18:15:00
12:35 PM,62.6,57.2,82,30.20,2.0,North,5.8,-,N/A,,Overcast,360,2013-11-23 18:35:00
12:55 PM,62.6,57.2,82,30.20,1.8,North,6.9,-,N/A,,Overcast,360,2013-11-23 18:55:00
1:15 PM,60.8,57.2,88,30.20,2.0,North,6.9,-,N/A,,Overcast,10,2013-11-23 19:15:00
1:35 PM,60.8,57.2,88,30.20,2.0,North,4.6,-,N/A,,Overcast,360,2013-11-23 19:35:00
1:55 PM,60.8,55.4,82,30.19,3.0,North,10.4,-,N/A,,Overcast,10,2013-11-23 19:55:00
2:15 PM,60.8,55.4,82,30.19,3.0,NNE,11.5,17.3,N/A,,Overcast,20,2013-11-23 20:15:00
2:35 PM,60.8,55.4,82,30.20,8.0,North,11.5,17.3,N/A,,Overcast,10,2013-11-23 20:35:00
2:55 PM,59.0,53.6,82,30.20,10.0,North,5.8,16.1,N/A,,Overcast,10,2013-11-23 20:55:00
3:15 PM,59.0,53.6,82,30.21,10.0,North,9.2,19.6,N/A,,Overcast,10,2013-11-23 21:15:00
3:35 PM,59.0,53.6,82,30.21,10.0,North,9.2,18.4,N/A,,Overcast,10,2013-11-23 21:35:00
3:55 PM,59.0,51.8,77,30.22,10.0,North,6.9,-,N/A,,Overcast,350,2013-11-23 21:55:00
4:15 PM,57.2,51.8,82,30.22,10.0,North,12.7,19.6,N/A,,Overcast,10,2013-11-23 22:15:00
4:35 PM,57.2,50.0,77,30.22,10.0,North,9.2,18.4,N/A,,Overcast,10,2013-11-23 22:35:00
4:55 PM,57.2,50.0,77,30.22,10.0,North,9.2,19.6,N/A,,Overcast,10,2013-11-23 22:55:00
5:15 PM,55.4,48.2,77,30.23,10.0,North,15.0,23.0,N/A,,Overcast,360,2013-11-23 23:15:00
5:35 PM,55.4,48.2,77,30.24,10.0,NNE,13.8,24.2,N/A,,Overcast,20,2013-11-23 23:35:00
5:55 PM,55.4,48.2,77,30.25,9.0,North,15.0,21.9,N/A,,Overcast,10,2013-11-23 23:55:00
6:15 PM,53.6,48.2,82,30.26,10.0,NNE,11.5,19.6,N/A,,Overcast,20,2013-11-24 00:15:00
6:35 PM,55.4,46.4,72,30.26,10.0,NNE,12.7,24.2,N/A,,Overcast,20,2013-11-24 00:35:00
6:55 PM,55.4,46.4,72,30.26,10.0,North,9.2,20.7,N/A,,Overcast,10,2013-11-24 00:55:00
7:15 PM,55.4,46.4,72,30.26,10.0,North,8.1,17.3,N/A,,Overcast,360,2013-11-24 01:15:00
7:35 PM,55.4,46.4,72,30.27,10.0,North,10.4,16.1,N/A,,Overcast,10,2013-11-24 01:35:00
7:55 PM,55.4,44.6,67,30.28,10.0,NNE,8.1,19.6,N/A,,Overcast,20,2013-11-24 01:55:00
8:15 PM,53.6,46.4,77,30.28,10.0,North,12.7,20.7,N/A,,Overcast,10,2013-11-24 02:15:00
8:35 PM,53.6,44.6,72,30.28,10.0,NNE,11.5,21.9,N/A,,Overcast,20,2013-11-24 02:35:00
8:55 PM,53.6,44.6,72,30.28,10.0,North,8.1,-,N/A,,Overcast,350,2013-11-24 02:55:00
9:15 PM,53.6,44.6,72,30.29,10.0,North,10.4,24.2,N/A,,Overcast,360,2013-11-24 03:15:00
9:35 PM,53.6,42.8,67,30.29,10.0,North,10.4,17.3,N/A,,Overcast,360,2013-11-24 03:35:00
9:55 PM,51.8,42.8,71,30.30,10.0,NNE,13.8,23.0,N/A,,Overcast,20,2013-11-24 03:55:00
10:15 PM,51.8,41.0,67,30.30,10.0,North,10.4,19.6,N/A,,Scattered Clouds,360,2013-11-24 04:15:00
10:35 PM,51.8,39.2,62,30.31,10.0,North,13.8,19.6,N/A,,Partly Cloudy,10,2013-11-24 04:35:00
10:55 PM,51.8,39.2,62,30.32,10.0,North,13.8,21.9,N/A,,Clear,10,2013-11-24 04:55:00
11:15 PM,51.8,39.2,62,30.32,10.0,North,11.5,17.3,N/A,,Mostly Cloudy,10,2013-11-24 05:15:00
11:35 PM,51.8,37.4,58,30.31,10.0,North,10.4,21.9,N/A,,Scattered Clouds,360,2013-11-24 05:35:00
11:55 PM,51.8,37.4,58,30.31,10.0,NNE,11.5,18.4,N/A,,Clear,20,2013-11-24 05:55:00